Lexington Weather

Lexington, Massachusetts, USA

49°F
12/8/2022 2:56pm 
  • Lexington Conditions: Clear
  • Temperature: 48.6°F / 9.2°CColder 1.2°F than last hour.
  • Dew Point: 35.8°FIncreased 0.6°Fsince last hour.
  • Relative Humidity: 61%Increased 4.0% since last hour.
  • Wind: Wind from NNW NNW 3 mph, 10-min avg: 2 mph, gust: 8 mph
  • Barometer: 30.07 in Steady
  • Visibility: 10 miles
  • Rain Today: 0.00 in
  •   

Warning: Undefined variable $rc in /homepages/6/d276339138/htdocs/weather/20190804/ssi/nwsProduct.php on line 323

Warning: Undefined variable $rc in /homepages/6/d276339138/htdocs/weather/20190804/ssi/nwsProduct.php on line 325

Warning: Undefined variable $rc in /homepages/6/d276339138/htdocs/weather/20190804/ssi/nwsProduct.php on line 323

Warning: Undefined variable $rc in /homepages/6/d276339138/htdocs/weather/20190804/ssi/nwsProduct.php on line 325

Warning: Undefined variable $rc in /homepages/6/d276339138/htdocs/weather/20190804/ssi/nwsProduct.php on line 323

Warning: Undefined variable $rc in /homepages/6/d276339138/htdocs/weather/20190804/ssi/nwsProduct.php on line 325

Warning: Undefined variable $rc in /homepages/6/d276339138/htdocs/weather/20190804/ssi/nwsProduct.php on line 323

Warning: Undefined variable $rc in /homepages/6/d276339138/htdocs/weather/20190804/ssi/nwsProduct.php on line 325

Warning: Undefined variable $rc in /homepages/6/d276339138/htdocs/weather/20190804/ssi/nwsProduct.php on line 323

Warning: Undefined variable $rc in /homepages/6/d276339138/htdocs/weather/20190804/ssi/nwsProduct.php on line 325

Warning: Undefined variable $rc in /homepages/6/d276339138/htdocs/weather/20190804/ssi/nwsProduct.php on line 323

Warning: Undefined variable $rc in /homepages/6/d276339138/htdocs/weather/20190804/ssi/nwsProduct.php on line 325

Warning: Undefined variable $rc in /homepages/6/d276339138/htdocs/weather/20190804/ssi/nwsProduct.php on line 323

Warning: Undefined variable $rc in /homepages/6/d276339138/htdocs/weather/20190804/ssi/nwsProduct.php on line 325

Regional Weather Roundup
for Boston, MA

        
000
ASUS41 KBOX 031610
RWRBOX

REGIONAL WEATHER ROUNDUP
NATIONAL WEATHER SERVICE BOSTON/NORTON MA
1100 AM EST SAT DEC 03 2022

NOTE:  "FAIR" INDICATES FEW OR NO CLOUDS BELOW 12,000 FEET WITH NO 
SIGNIFICANT WEATHER AND/OR OBSTRUCTIONS TO VISIBILITY.

MAZALL-031700-
EASTERN MASSACHUSETTS
  
CITY           SKY/WX    TMP DP  RH WIND       PRES   REMARKS
BOSTON         LGT RAIN  59  49  69 S23G41    30.07F                  
BEVERLY        CLOUDY    57  48  72 S20G28    30.05F                  
LAWRENCE       LGT RAIN  59  48  67 S15G25    30.04F                  
BEDFORD        LGT RAIN  60  49  66 S23G35    30.04F                  
NORWOOD        LGT RAIN  60  51  72 S22G35    30.07F                  
MARSHFIELD       N/A     59  50  72 S20G32    30.10F                  
PLYMOUTH       CLOUDY    60  51  72 S23G39    30.12F                  
TAUNTON          N/A    N/A N/A N/A MISG      30.12F                  
NEW BEDFORD    CLOUDY    59  53  80 S22G37    30.13F                  
$$

MAZALL-031700-
CAPE COD AND THE ISLANDS
  
CITY           SKY/WX    TMP DP  RH WIND       PRES   REMARKS
FALMOUTH       DRIZZLE   57  52  82 S25G35    30.17F                  
HYANNIS        CLOUDY    54  50  86 S15G23    30.16F                  
CHATHAM        CLOUDY    57  50  77 S14G25    30.20F                  
PROVINCETOWN   CLOUDY    55  51  86 S18G26    30.15F                  
NANTUCKET      PTSUNNY   59  53  80 S21       30.22F                  
MARTHAS VNYRD  CLOUDY    59  53  80 S23G35    30.18F                  
$$
 
MAZALL-031700-
CENTRAL AND WESTERN MASSACHUSETTS
  
CITY           SKY/WX    TMP DP  RH WIND       PRES   REMARKS
WORCESTER      LGT RAIN  54  50  86 S23G30    30.02F                  
FITCHBURG      LGT RAIN  54  48  80 S13G21    30.02F                  
ORANGE         LGT RAIN  53  50  89 S18G26    30.00F                  
SPRINGFIELD    LGT RAIN  54  54 100 SW21G28   29.98F FOG              
WESTFIELD      LGT RAIN  53  51  93 S15       30.00F                  
NORTH ADAMS    RAIN      52  47  83 CALM      29.97F                  
PITTSFIELD     LGT RAIN  50  46  86 S17G24    29.96F FOG              
$$
 
RIZALL-031700-
RHODE ISLAND
  
CITY           SKY/WX    TMP DP  RH WIND       PRES   REMARKS
PROVIDENCE     LGT RAIN  57  51  80 S29G37    30.12F                  
NEWPORT        LGT RAIN  57  51  80 S21G37    30.13F                  
BLOCK ISLAND   LGT RAIN  56  51  84 S25G33    30.15F                  
SMITHFIELD     LGT RAIN  55  52  89 SW10G24   30.09F                  
WESTERLY       LGT RAIN  58  51  78 S22G33    30.13F                  
$$
 
CTZALL-031700-
CONNECTICUT
  
CITY           SKY/WX    TMP DP  RH WIND       PRES   REMARKS
BRADLEY INTL   RAIN      55  52  89 S18G25    30.02F                  
HARTFORD       RAIN      57  52  83 S22G35    30.05F                  
BRIDGEPORT     RAIN      55  52  89 SW26G37   30.07F FOG              
DANBURY        RAIN      55  51  86 S10G24    30.05F FOG              
GROTON         LGT RAIN  58  52  80 S29G38    30.10F                  
NEW HAVEN      CLOUDY    58  54  86 SW25G36   30.08F FOG              
CHESTER        LGT RAIN  55  54  94 S18G29    30.09F                  
MERIDEN        RAIN      55  51  86 S16G31    30.06F FOG              
WILLIMANTIC    LGT RAIN  55  52  89 S20G26    30.07F                  
OXFORD         LGT RAIN  53  52  96 S16G24    30.06F FOG              
$$

MEZ002-015-021-024-NHZ003-005-008-011-012-014-VTZ005-008-031700-
NORTHERN NEW ENGLAND
  
CITY           SKY/WX    TMP DP  RH WIND       PRES   REMARKS
PORTLAND ME    LGT RAIN  50  49  96 S14G22    30.03F FOG              
BANGOR ME      LGT RAIN  50  47  89 S16G31    30.05F FOG              
CONCORD NH     LGT RAIN  45  44  97 SE7       29.99F FOG              
MANCHESTER NH  LGT RAIN  56  49  77 S18G26    29.98F                  
NASHUA NH      LGT RAIN  55  55 100 VRB7      30.01F                  
PORTSMOUTH NH  CLOUDY    57  48  73 S14G25    30.01F                  
JAFFREY NH     RAIN      53  49  86 S14G24    29.98F                  
KEENE NH       RAIN      53  51  93 S10G23      N/A                   
BURLINGTON VT  CLOUDY    45  41  86 S18G28    29.84F                  
MT. WASHINGTON LGTSLEET  30  30 100 SW45G63     N/A  VSB 0   WCI  12  
$$

NYZ052-076-031700-
EASTERN NEW YORK
  
CITY           SKY/WX    TMP DP  RH WIND       PRES   REMARKS
ALBANY         RAIN      47  44  90 S16       29.94F                  
NEW YORK CITY  LGT RAIN  56  51  84 S13G23    30.07F FOG              
$$
 
ANZALL-031700-
MARINE OBSERVATIONS
  
STATION/POSITION TIME  TEMP    WIND        PRES    VSBY  WAVE
                       AIR SEA DIR/SP/G                  HT/PER
                 (UTC) (F)     (DEG/KT/KT) (MB)    (MI)  (FT/S)
BOSTON BUOY      1550      51  180/ 19/ 25 1019.5F         4/ 4
BUZZARDS BAY     1500   57     190/ 29/ 31 1023.0F
NANTUCKET SOUND  1550   55     190/ 19/ 23 1022.1F         2/ 4
MASS BAY-STELLWA 1404   54 50  180/ 19/ 25 1020.7F  1 7/8  4/ 5
ISLE OF SHOALS   1500   54     190/ 29/ 32 1018.5F
S OF BLOCK IS    1526      56                N/A           7/ 6
$$

......................KEY.........................
  SKY/WX - SKY CONDITION/PRESENT WEATHER
  TMP    - TEMPERATURE IN FAHRENHEIT
  DWPT   - DEWPOINT IN FAHRENHEIT
  RH     - RELATIVE HUMIDITY IN PERCENT
  WIND   - DIRECTION AND SPEED IN MPH
  PRES   - MEAN SEA LEVEL PRESSURE IN INCHES OF HG
  WCI    - WIND CHILL INDEX
  VSB    - VISIBILITY IN MILES
  HX     - HEAT INDEX
  TC     - TEMPERATURE IN CELSIUS
  VRB    - VARIABLE WIND DIRECTION
  N/A    - NOT AVAILABLE
  
      

Other recent Regional Weather Roundups

Thu Dec 8, 2:10pm

Thu Dec 8, 1:10pm

Thu Dec 8, 12:10pm

Thu Dec 8, 11:10am

Thu Dec 8, 10:10am

Thu Dec 8, 9:10am

Thu Dec 8, 8:10am

Thu Dec 8, 7:10am

Thu Dec 8, 6:10am

Thu Dec 8, 5:10am

Thu Dec 8, 4:10am

Thu Dec 8, 3:10am

Thu Dec 8, 2:10am

Thu Dec 8, 1:10am

Thu Dec 8, 12:10am

Wed Dec 7, 11:10pm

Wed Dec 7, 10:10pm

Wed Dec 7, 9:10pm

Wed Dec 7, 8:10pm

Wed Dec 7, 7:10pm

Wed Dec 7, 6:10pm

Wed Dec 7, 5:10pm

Wed Dec 7, 4:10pm

Wed Dec 7, 3:10pm

Wed Dec 7, 2:10pm

Wed Dec 7, 1:10pm

Wed Dec 7, 12:10pm

Wed Dec 7, 11:10am

Wed Dec 7, 10:10am

Wed Dec 7, 9:10am

Wed Dec 7, 8:10am

Wed Dec 7, 7:10am

Wed Dec 7, 6:10am

Wed Dec 7, 5:10am

Wed Dec 7, 4:10am

Wed Dec 7, 3:10am

Wed Dec 7, 2:10am

Wed Dec 7, 1:10am

Wed Dec 7, 12:10am

Tue Dec 6, 11:10pm

Tue Dec 6, 10:10pm

Tue Dec 6, 9:10pm

Tue Dec 6, 8:10pm

Tue Dec 6, 7:10pm

Tue Dec 6, 6:10pm

Tue Dec 6, 5:10pm

Tue Dec 6, 4:10pm

Tue Dec 6, 3:10pm

Tue Dec 6, 2:10pm

Tue Dec 6, 1:10pm

Tue Dec 6, 12:10pm

Tue Dec 6, 11:10am

Tue Dec 6, 10:10am

Tue Dec 6, 9:10am

Tue Dec 6, 8:10am

Tue Dec 6, 7:10am

Tue Dec 6, 6:10am

Tue Dec 6, 5:10am

Tue Dec 6, 4:10am

Tue Dec 6, 3:10am

Tue Dec 6, 2:10am

Tue Dec 6, 1:10am

Tue Dec 6, 12:10am

Mon Dec 5, 11:10pm

Mon Dec 5, 10:10pm

Mon Dec 5, 9:10pm

Mon Dec 5, 8:10pm

Mon Dec 5, 7:10pm

Mon Dec 5, 6:10pm

Mon Dec 5, 5:10pm

Mon Dec 5, 4:10pm

Mon Dec 5, 3:10pm

Mon Dec 5, 2:10pm

Mon Dec 5, 1:10pm

Mon Dec 5, 12:10pm

Mon Dec 5, 11:10am

Mon Dec 5, 10:10am

Mon Dec 5, 9:10am

Mon Dec 5, 8:10am

Mon Dec 5, 7:10am

Mon Dec 5, 6:10am

Mon Dec 5, 5:10am

Mon Dec 5, 4:10am

Mon Dec 5, 3:10am

Mon Dec 5, 2:10am

Mon Dec 5, 1:10am

Mon Dec 5, 12:10am

Sun Dec 4, 11:10pm

Sun Dec 4, 10:10pm

Sun Dec 4, 9:10pm

Sun Dec 4, 8:10pm

Sun Dec 4, 7:10pm

Sun Dec 4, 6:10pm

Sun Dec 4, 5:10pm

Sun Dec 4, 4:10pm

Sun Dec 4, 3:10pm

Sun Dec 4, 2:10pm

Sun Dec 4, 1:10pm

Sun Dec 4, 12:10pm

Sun Dec 4, 11:10am

Sun Dec 4, 10:10am

Sun Dec 4, 9:10am

Sun Dec 4, 8:10am

Sun Dec 4, 7:10am

Sun Dec 4, 6:10am

Sun Dec 4, 5:10am

Sun Dec 4, 4:10am

Sun Dec 4, 3:10am

Sun Dec 4, 2:10am

Sun Dec 4, 1:10am

Sun Dec 4, 12:10am

Sat Dec 3, 11:10pm

Sat Dec 3, 10:10pm

Sat Dec 3, 9:10pm

Sat Dec 3, 8:10pm

Sat Dec 3, 7:10pm

Sat Dec 3, 6:10pm

Sat Dec 3, 5:10pm

Sat Dec 3, 4:10pm

Sat Dec 3, 3:10pm

Sat Dec 3, 2:10pm

Sat Dec 3, 1:10pm

Sat Dec 3, 12:10pm

Sat Dec 3, 10:10am

Sat Dec 3, 9:10am

Sat Dec 3, 8:10am

Sat Dec 3, 7:10am

Sat Dec 3, 6:10am

Sat Dec 3, 5:10am

Sat Dec 3, 4:10am

Sat Dec 3, 3:10am

Sat Dec 3, 2:10am

Sat Dec 3, 1:10am

Sat Dec 3, 12:10am

Fri Dec 2, 11:10pm

Fri Dec 2, 10:10pm

Fri Dec 2, 9:10pm

Fri Dec 2, 8:10pm

Fri Dec 2, 7:10pm

Fri Dec 2, 6:10pm

Fri Dec 2, 5:10pm

Fri Dec 2, 4:10pm

Fri Dec 2, 3:10pm

Fri Dec 2, 2:10pm

Fri Dec 2, 1:10pm

Fri Dec 2, 12:10pm

Fri Dec 2, 11:10am

Fri Dec 2, 10:10am

Fri Dec 2, 9:10am

Fri Dec 2, 8:10am

Fri Dec 2, 7:10am

Fri Dec 2, 6:10am

Fri Dec 2, 5:10am

Fri Dec 2, 4:10am

Fri Dec 2, 3:10am

Fri Dec 2, 2:10am

Fri Dec 2, 1:10am

Fri Dec 2, 12:10am

Thu Dec 1, 11:10pm

Thu Dec 1, 10:10pm

Thu Dec 1, 9:10pm

Thu Dec 1, 8:10pm

Thu Dec 1, 7:10pm

Thu Dec 1, 6:10pm

Thu Dec 1, 5:10pm

Thu Dec 1, 4:10pm

Thu Dec 1, 3:10pm

Meta data:

ID: 6e493272-67ed-4887-89a7-53c356edd77f
Link: https://api.weather.gov/products/6e493272-67ed-4887-89a7-53c356edd77f